BAW7CP EGLL-KORD

Flight info

Callsign BAW7CP
Flight time N/A
Altitude 36000
Route UMLAT1F UMLAT T418 WELIN T420 TNT UL28 PENIL DCT DEJEM DCT OZRAT DCT WETFI DCT ASKUP DCT REVNU DCT RESNO/M081F380 DCT 56N020W 56N030W 56N040W 55N050W DCT LOMSI/N0483F400 DCT MOFAT DCT ALMOP DCT ODAXY DCT OBSTR WYNDE3
Aircraft B772/H-SDE2E3FGHIJ5LORVWXY/LB1D1

Departure

Time 2026-05-04 08:13
Airport London Heathrow Airport (EGLL)

Arrival

Time N/A
Airport Chicago O'Hare International Airport (KORD)
Time Latitude Longitude Altitude Speed Heading
2026-05-04 07:22 51.47398 -0.48017 93 ft 0 kts 270°
2026-05-04 07:52 51.47398 -0.47980 92 ft 4 kts 270°
2026-05-04 07:53 51.47398 -0.47942 93 ft 2 kts 270°
2026-05-04 07:54 51.47449 -0.47873 90 ft 0 kts 180°
2026-05-04 08:02 51.47183 -0.47871 90 ft 41 kts 180°
2026-05-04 08:02 51.46965 -0.47868 90 ft 16 kts 179°
2026-05-04 08:02 51.46774 -0.47866 91 ft 35 kts 179°
2026-05-04 08:03 51.46664 -0.47836 95 ft 7 kts 128°
2026-05-04 08:03 51.46656 -0.47675 93 ft 25 kts 91°
2026-05-04 08:03 51.46656 -0.47286 93 ft 43 kts 89°
2026-05-04 08:03 51.46659 -0.46758 94 ft 53 kts 89°
2026-05-04 08:04 51.46662 -0.46175 90 ft 50 kts 89°
2026-05-04 08:04 51.46662 -0.45649 90 ft 45 kts 90°
2026-05-04 08:04 51.46663 -0.45286 91 ft 27 kts 90°
2026-05-04 08:04 51.46664 -0.44996 91 ft 21 kts 90°
2026-05-04 08:05 51.46665 -0.44803 91 ft 14 kts 90°
2026-05-04 08:05 51.46665 -0.44639 91 ft 17 kts 90°
2026-05-04 08:05 51.46666 -0.44445 91 ft 17 kts 89°
2026-05-04 08:05 51.46666 -0.44265 90 ft 14 kts 90°
2026-05-04 08:06 51.46666 -0.44210 90 ft 0 kts 90°
2026-05-04 08:08 51.46667 -0.44204 90 ft 5 kts 88°
2026-05-04 08:08 51.46670 -0.44061 91 ft 21 kts 94°
2026-05-04 08:10 51.46619 -0.43608 91 ft 0 kts 175°
2026-05-04 08:11 51.46598 -0.43605 91 ft 11 kts 175°
2026-05-04 08:11 51.46494 -0.43676 94 ft 4 kts 269°
2026-05-04 08:12 51.46494 -0.43694 92 ft 12 kts 269°
2026-05-04 08:12 51.46493 -0.44270 91 ft 95 kts 269°
2026-05-04 08:12 51.46501 -0.45736 95 ft 169 kts 272°
2026-05-04 08:12 51.46523 -0.47765 669 ft 183 kts 271°
2026-05-04 08:13 51.46517 -0.49843 1654 ft 187 kts 271°
2026-05-04 08:13 51.46734 -0.51941 2133 ft 205 kts 296°
2026-05-04 08:13 51.47383 -0.53979 2451 ft 219 kts 298°
2026-05-04 08:13 51.48154 -0.56273 2642 ft 243 kts 300°
2026-05-04 08:14 51.48981 -0.58714 3092 ft 257 kts 298°
2026-05-04 08:14 51.49803 -0.61278 3752 ft 262 kts 298°
2026-05-04 08:14 51.50641 -0.63894 4471 ft 266 kts 297°
2026-05-04 08:16 51.62697 -0.68898 7314 ft 281 kts 355°
2026-05-04 08:16 51.64660 -0.69118 7819 ft 286 kts 355°
2026-05-04 08:16 51.66653 -0.69338 8336 ft 288 kts 355°
2026-05-04 08:17 51.68664 -0.69560 8863 ft 291 kts 355°
2026-05-04 08:17 51.70690 -0.69786 9381 ft 293 kts 355°
2026-05-04 08:17 51.72728 -0.70014 9910 ft 295 kts 355°
2026-05-04 08:17 51.74791 -0.70245 10318 ft 303 kts 355°
2026-05-04 08:19 51.91666 -0.72136 14222 ft 367 kts 355°
2026-05-04 08:19 51.94230 -0.72424 14918 ft 371 kts 355°
2026-05-04 08:20 51.96815 -0.72715 15610 ft 374 kts 355°
2026-05-04 08:20 51.99422 -0.73009 16310 ft 378 kts 354°
2026-05-04 08:20 52.02015 -0.73512 16982 ft 381 kts 348°
2026-05-04 08:20 52.04561 -0.74519 17638 ft 383 kts 341°
2026-05-04 08:21 52.07139 -0.75874 18298 ft 386 kts 340°
2026-05-04 08:21 52.09669 -0.77241 18867 ft 390 kts 340°
2026-05-04 08:21 52.12250 -0.78631 19421 ft 393 kts 340°
2026-05-04 08:21 52.14864 -0.80023 19972 ft 396 kts 340°
2026-05-04 08:22 52.17498 -0.81413 20510 ft 400 kts 340°
2026-05-04 08:22 52.20154 -0.82808 21038 ft 403 kts 340°
2026-05-04 08:24 52.37769 -0.98170 24481 ft 421 kts 326°
2026-05-04 08:24 52.40185 -1.00588 24913 ft 424 kts 326°
2026-05-04 08:24 52.42714 -1.03113 25301 ft 427 kts 326°
2026-05-04 08:24 52.45264 -1.05658 25727 ft 430 kts 326°
2026-05-04 08:25 52.47822 -1.08217 26155 ft 432 kts 326°
2026-05-04 08:25 52.50391 -1.10800 26585 ft 435 kts 326°
2026-05-04 08:25 52.52975 -1.13421 27017 ft 437 kts 327°
2026-05-04 08:25 52.55562 -1.16051 27503 ft 438 kts 327°
2026-05-04 08:26 52.58167 -1.18695 27920 ft 441 kts 327°
2026-05-04 08:27 52.76889 -1.37708 30622 ft 460 kts 329°
2026-05-04 08:28 52.79597 -1.40471 31173 ft 456 kts 329°
2026-05-04 08:28 52.82302 -1.43232 31487 ft 459 kts 329°
2026-05-04 08:28 52.85039 -1.46031 31682 ft 464 kts 329°
2026-05-04 08:28 52.87792 -1.48850 31923 ft 468 kts 329°
2026-05-04 08:29 52.90560 -1.51691 32202 ft 469 kts 329°
2026-05-04 08:29 52.93343 -1.54552 32488 ft 471 kts 329°
2026-05-04 08:29 52.96139 -1.57431 32757 ft 473 kts 329°
2026-05-04 08:31 53.15600 -1.77615 34996 ft 471 kts 329°
2026-05-04 08:33 53.29889 -2.06431 36051 ft 479 kts 297°
2026-05-04 08:33 53.31326 -2.11419 36044 ft 476 kts 297°
2026-05-04 08:35 53.39670 -2.46799 36048 ft 475 kts 288°
2026-05-04 08:35 53.41641 -2.57357 36059 ft 475 kts 289°
2026-05-04 08:37 53.48642 -2.94698 36060 ft 481 kts 289°
2026-05-04 08:38 53.50569 -3.05236 36061 ft 482 kts 289°
2026-05-04 08:38 53.52526 -3.16008 36058 ft 482 kts 289°
2026-05-04 08:40 53.59428 -3.54332 36065 ft 482 kts 289°
2026-05-04 08:41 53.61327 -3.64867 36061 ft 482 kts 289°
2026-05-04 08:41 53.63233 -3.75749 36064 ft 483 kts 288°
2026-05-04 08:42 53.65065 -3.86527 36068 ft 483 kts 288°
2026-05-04 08:42 53.66910 -3.97426 36069 ft 483 kts 288°
2026-05-04 08:43 53.68720 -4.08139 36065 ft 484 kts 288°
2026-05-04 08:43 53.70558 -4.19066 36068 ft 484 kts 289°
2026-05-04 08:44 53.72377 -4.29955 36070 ft 484 kts 289°
2026-05-04 08:46 53.79607 -4.73960 36054 ft 486 kts 288°
2026-05-04 08:46 53.80924 -4.83237 36075 ft 488 kts 282°
2026-05-04 08:47 53.81481 -4.94664 36086 ft 490 kts 275°
2026-05-04 08:47 53.81757 -5.05963 36081 ft 490 kts 275°
2026-05-04 08:48 53.82073 -5.17470 36083 ft 490 kts 275°
2026-05-04 08:48 53.82411 -5.28966 36081 ft 489 kts 275°
2026-05-04 08:49 53.82740 -5.40459 36085 ft 489 kts 275°
2026-05-04 08:50 53.86142 -5.79991 36084 ft 485 kts 283°
2026-05-04 08:51 53.87304 -5.91236 36087 ft 485 kts 283°
2026-05-04 08:51 53.88422 -6.02218 36085 ft 484 kts 283°
2026-05-04 08:52 53.89650 -6.13420 36099 ft 482 kts 287°
2026-05-04 08:52 53.91395 -6.24364 36093 ft 480 kts 289°